| time (UTC) | temp F | wind direction | speed MPH | gust MPH | rain 1hr in | rain 24hr in | rain mn in | humidity % | barometer mb |
| 20260502224548 | 56 | 0 | 0.0 | 0.0 | 0.01 | 0.26 | 0.01 | 94 | 1014.3 |
| 20260502223042 | 57 | 0 | 0.0 | 0.0 | 0.01 | 0.26 | 0.01 | 94 | 1014.5 |
| 20260502221541 | 57 | 0 | 0.0 | 0.0 | 0.00 | 0.25 | 0.00 | 94 | 1014.7 |
| 20260502220038 | 57 | 0 | 0.0 | 0.0 | 0.00 | 0.25 | 0.00 | 94 | 1014.6 |
| 20260502214536 | 57 | 0 | 0.0 | 2.0 | 0.00 | 0.25 | 0.25 | 94 | 1014.8 |
| 20260502213036 | 57 | 0 | 0.0 | 2.0 | 0.00 | 0.25 | 0.25 | 94 | 1014.6 |
| 20260502211542 | 57 | 0 | 0.0 | 0.0 | 0.00 | 0.25 | 0.25 | 94 | 1015.0 |
| 20260502210038 | 57 | 0 | 0.0 | 0.0 | 0.00 | 0.24 | 0.24 | 94 | 1015.0 |
| 20260502204540 | 57 | 0 | 0.0 | 1.0 | 0.00 | 0.24 | 0.24 | 94 | 1015.1 |
| 20260502203039 | 57 | 178 | 1.0 | 4.0 | 0.00 | 0.24 | 0.24 | 93 | 1015.1 |
| 20260502201537 | 57 | 181 | 1.0 | 4.0 | 0.01 | 0.24 | 0.24 | 93 | 1015.1 |
| 20260502200042 | 58 | 0 | 0.0 | 0.0 | 0.03 | 0.24 | 0.24 | 93 | 1015.1 |
| 20260502194537 | 58 | 0 | 0.0 | 0.0 | 0.03 | 0.24 | 0.24 | 93 | 1015.0 |
| 20260502193039 | 58 | 0 | 0.0 | 0.0 | 0.03 | 0.23 | 0.23 | 93 | 1014.7 |
| 20260502191537 | 58 | 0 | 0.0 | 2.0 | 0.03 | 0.22 | 0.22 | 93 | 1014.7 |
| 20260502190041 | 59 | 0 | 0.0 | 4.0 | 0.01 | 0.20 | 0.20 | 93 | 1014.8 |
| 20260502184549 | 59 | 140 | 2.0 | 6.0 | 0.01 | 0.20 | 0.20 | 92 | 1014.5 |
| 20260502183052 | 59 | 161 | 3.0 | 10.0 | 0.01 | 0.19 | 0.19 | 92 | 1014.4 |
| 20260502181543 | 60 | 173 | 3.0 | 9.0 | 0.02 | 0.19 | 0.19 | 92 | 1014.4 |
| 20260502163042 | 62 | 136 | 3.0 | 9.0 | 0.00 | 0.15 | 0.15 | 88 | 1014.8 |
| 20260502161543 | 63 | 131 | 3.0 | 12.0 | 0.00 | 0.15 | 0.15 | 88 | 1014.9 |
| 20260502151543 | 62 | 145 | 1.0 | 4.0 | 0.00 | 0.15 | 0.15 | 88 | 1015.8 |
| 20260502123044 | 60 | 133 | 1.0 | 3.0 | 0.02 | 0.14 | 0.14 | 92 | 1017.2 |
| 20260502121539 | 60 | 0 | 0.0 | 5.0 | 0.02 | 0.14 | 0.14 | 92 | 1017.4 |
| 20260502114549 | 59 | 157 | 2.0 | 7.0 | 0.07 | 0.12 | 0.12 | 91 | 1017.7 |
| 20260502113041 | 58 | 145 | 0.0 | 5.0 | 0.09 | 0.12 | 0.12 | 91 | 1017.5 |
| 20260502111537 | 58 | 171 | 1.0 | 5.0 | 0.08 | 0.11 | 0.11 | 89 | 1017.8 |
| 20260502110040 | 59 | 151 | 2.0 | 12.0 | 0.07 | 0.10 | 0.10 | 86 | 1017.7 |
| 20260502104548 | 62 | 157 | 2.0 | 10.0 | 0.00 | 0.03 | 0.03 | 79 | 1018.1 |
| 20260502103039 | 62 | 141 | 3.0 | 9.0 | 0.00 | 0.03 | 0.03 | 77 | 1018.3 |
| 20260502101608 | 61 | 150 | 4.0 | 10.0 | 0.00 | 0.03 | 0.03 | 77 | 1018.2 |
| 20260502071535 | 57 | 126 | 4.0 | 8.0 | 0.00 | 0.03 | 0.03 | 74 | 1017.7 |
| 20260502070054 | 56 | 139 | 2.0 | 8.0 | 0.01 | 0.03 | 0.03 | 78 | 1017.8 |
| 20260502064539 | 54 | 138 | 2.0 | 6.0 | 0.03 | 0.03 | 0.03 | 81 | 1018.0 |
| 20260502063038 | 53 | 117 | 1.0 | 7.0 | 0.03 | 0.03 | 0.03 | 81 | 1018.1 |
| 20260502061536 | 54 | 128 | 2.0 | 7.0 | 0.02 | 0.02 | 0.02 | 77 | 1018.2 |
| 20260502060040 | 57 | 151 | 3.0 | 9.0 | 0.00 | 0.00 | 0.00 | 68 | 1018.4 |
| 20260502054542 | 58 | 132 | 3.0 | 8.0 | 0.00 | 0.00 | 0.00 | 59 | 1018.3 |
| 20260502053038 | 57 | 133 | 2.0 | 6.0 | 0.00 | 0.00 | 0.00 | 61 | 1018.2 |
| 20260502051553 | 57 | 139 | 4.0 | 8.0 | 0.00 | 0.00 | 0.00 | 62 | 1018.3 |
| 20260502050036 | 56 | 142 | 3.0 | 9.0 | 0.00 | 0.00 | 0.00 | 63 | 1017.9 |
| 20260502044545 | 56 | 163 | 2.0 | 5.0 | 0.00 | 0.00 | 0.00 | 65 | 1018.0 |
| 20260502043039 | 55 | 137 | 1.0 | 4.0 | 0.00 | 0.00 | 0.00 | 67 | 1018.1 |
| 20260502041542 | 56 | 123 | 2.0 | 5.0 | 0.00 | 0.00 | 0.00 | 68 | 1018.1 |
| 20260502040051 | 56 | 130 | 1.0 | 3.0 | 0.00 | 0.00 | 0.00 | 67 | 1018.3 |
| 20260502034536 | 57 | 147 | 1.0 | 6.0 | 0.00 | 0.00 | 0.00 | 66 | 1018.4 |
| 20260502033137 | 56 | 141 | 2.0 | 6.0 | 0.00 | 0.00 | 0.00 | 68 | 1018.4 |
| 20260502033043 | 56 | 141 | 2.0 | 6.0 | 0.00 | 0.00 | 0.00 | 68 | 1018.4 |
| 20260502031541 | 57 | 132 | 1.0 | 5.0 | 0.00 | 0.00 | 0.00 | 70 | 1018.5 |
| 20260502030040 | 57 | 142 | 2.0 | 4.0 | 0.00 | 0.00 | 0.00 | 71 | 1018.5 |
| 20260502024540 | 57 | 141 | 2.0 | 5.0 | 0.00 | 0.00 | 0.00 | 75 | 1018.8 |
| 20260502023044 | 56 | 125 | 1.0 | 3.0 | 0.00 | 0.00 | 0.00 | 80 | 1018.8 |
| 20260502021541 | 56 | 0 | 0.0 | 1.0 | 0.00 | 0.00 | 0.00 | 78 | 1018.8 |
| 20260502020053 | 58 | 125 | 1.0 | 3.0 | 0.00 | 0.00 | 0.00 | 75 | 1019.0 |
| 20260502014539 | 58 | 134 | 1.0 | 3.0 | 0.00 | 0.00 | 0.00 | 76 | 1019.2 |
| 20260502013052 | 57 | 143 | 1.0 | 2.0 | 0.00 | 0.00 | 0.00 | 81 | 1019.4 |
| 20260502011536 | 55 | 139 | 0.0 | 0.0 | 0.00 | 0.00 | 0.00 | 89 | 1019.5 |
| 20260502010039 | 56 | 0 | 0.0 | 0.0 | 0.00 | 0.00 | 0.00 | 91 | 1019.6 |
| 20260502004623 | 57 | 0 | 0.0 | 0.0 | 0.00 | 0.00 | 0.00 | 91 | 1019.8 |
| 20260502003037 | 57 | 0 | 0.0 | 0.0 | 0.00 | 0.00 | 0.00 | 91 | 1019.8 |
| 20260502001552 | 57 | 0 | 0.0 | 0.0 | 0.00 | 0.00 | 0.00 | 90 | 1019.9 |
| 20260502000037 | 58 | 0 | 0.0 | 0.0 | 0.00 | 0.00 | 0.00 | 91 | 1020.2 |
| 20260501234540 | 58 | 0 | 0.0 | 0.0 | 0.00 | 0.00 | 0.00 | 90 | 1020.3 |
| 20260501233044 | 58 | 0 | 0.0 | 0.0 | 0.00 | 0.00 | 0.00 | 90 | 1020.1 |
| 20260501231538 | 58 | 0 | 0.0 | 1.0 | 0.00 | 0.00 | 0.00 | 89 | 1020.1 |
| 20260501230038 | 59 | 0 | 0.0 | 1.0 | 0.00 | 0.00 | 0.00 | 89 | 1020.3 |